Wind_Speed
11 11 12 12 6 6 8 9 11 13 14 15 16 17 17 16 16 16 17 17 17 17 16 15 14 13 12 12 12 12 12 12 13 13 13 13 14 14 15 15 15 15 16 15 15 15 15 15 15 15 15 15 15 14 14 13 12 11 9 11 14 15 13 12 11 10 10 10 10 9 9 9 9 10 11 10 9 8 7 6 5 6 6 5 4
13 13 14 13 6 7 8 10 13 14 15 16 17 17 17 16 17 17 17 17 17 16 15 15 14 13 12 12 12 12 12 12 12 12 12 12 13 13 13 14 14 14 14 14 14 14 14 14 14 14 14 15 15 14 14 13 11 9 9 13 15 14 12 11 10 10 9 10 9 7 7 7 7 8 8 7 7 6 6 5 5 6 5 5 4
13 12 13 11 8 11 12 13 15 15 17 18 17 17 16 17 17 18 18 18 17 16 15 14 14 13 13 13 12 12 12 12 11 11 11 11 11 12 12 12 12 12 12 12 12 13 13 12 12 12 13 14 14 14 13 12 10 8 10 14 14 12 11 10 10 9 8 9 8 5 6 7 5 5 5 5 6 5 4 5 5 5 4 4 4
11 10 11 12 10 12 13 14 16 17 18 18 17 17 17 18 19 19 18 17 16 15 15 14 13 13 12 12 11 11 11 11 11 11 10 10 10 10 10 11 11 11 11 11 11 12 12 11 10 11 12 13 13 13 12 10 7 7 10 14 13 11 10 9 10 8 6 7 5 4 5 5 4 4 4 4 4 5 6 6 5 5 4 3 3
11 11 12 12 10 9 12 14 16 18 18 18 18 18 18 18 19 18 17 16 15 15 14 13 12 11 11 10 10 10 10 11 10 10 9 9 9 9 9 9 10 9 9 10 10 10 11 10 10 11 12 13 13 12 10 7 5 7 11 13 11 11 10 9 9 7 7 6 3 3 4 4 5 5 4 3 2 5 6 6 5 5 4 4 5
10 10 8 8 10 11 13 14 15 17 18 18 18 17 17 17 17 17 16 15 14 13 11 10 10 10 9 9 9 9 10 10 10 9 8 8 8 8 8 8 8 8 8 8 9 9 10 10 10 10 11 12 12 11 9 6 5 8 12 11 11 10 9 9 8 7 7 5 3 3 3 3 4 4 3 4 5 6 6 5 5 4 5 6 7
8 9 8 8 11 13 13 13 15 15 16 17 17 16 15 15 14 12 11 11 10 9 9 9 9 8 8 8 8 8 9 9 8 8 7 7 7 7 7 7 7 7 7 7 8 8 8 8 8 9 10 11 11 9 8 6 6 9 11 10 10 10 9 8 8 8 6 4 3 3 4 3 3 4 5 6 7 7 7 7 6 6 6 7 7
7 10 12 12 12 13 12 13 14 15 15 16 15 13 11 9 8 7 6 6 6 7 7 8 7 7 7 7 7 7 8 8 7 7 6 6 6 6 7 7 7 7 6 6 7 6 5 6 7 9 9 10 10 8 6 6 8 9 8 8 9 9 7 7 9 8 5 3 4 4 4 4 4 6 6 7 7 8 9 9 8 7 7 6 6
9 11 13 14 13 13 12 12 12 13 12 12 11 9 8 7 7 7 5 5 6 6 6 6 6 5 5 6 6 7 7 7 7 6 6 5 5 6 6 6 6 7 5 5 6 4 4 5 6 8 8 9 8 6 5 6 8 8 6 6 8 8 7 7 8 8 4 4 4 5 5 6 6 8 8 8 8 10 9 8 8 8 8 7 7
11 11 12 12 12 12 13 12 11 11 10 11 12 10 9 8 7 7 7 6 7 7 6 5 5 5 5 5 5 6 7 6 6 6 6 5 5 5 6 6 6 6 5 5 5 3 4 4 6 8 8 8 7 6 5 6 7 7 5 5 7 7 7 7 9 10 6 4 5 6 7 7 9 10 9 9 10 10 8 7 7 8 7 8 10
10 10 11 11 12 13 13 13 11 11 10 11 11 8 7 6 5 6 6 6 6 6 6 6 6 6 5 5 5 6 6 6 6 6 6 5 5 5 6 6 6 6 6 5 5 4 4 4 5 7 7 7 6 5 5 5 6 6 5 4 6 6 7 8 10 10 6 6 8 8 8 9 11 12 12 12 11 9 8 6 6 7 8 9 9
10 10 11 11 12 12 12 12 11 10 9 8 8 7 7 6 5 6 6 6 6 6 6 6 6 6 6 6 6 6 6 6 6 6 6 6 6 6 6 6 6 6 6 6 5 4 4 4 5 6 6 6 6 5 5 5 5 6 5 5 6 6 7 9 11 10 5 7 9 9 10 10 11 14 14 12 7 5 4 5 6 7 9 9 6
9 9 10 10 11 11 12 12 11 10 9 8 8 7 7 7 6 6 6 6 6 6 6 6 6 6 6 6 6 6 7 6 6 6 6 6 7 7 6 6 6 6 6 6 6 5 4 4 5 5 5 6 6 5 5 5 6 5 5 5 6 6 7 9 11 9 5 10 10 9 10 10 11 13 11 7 4 4 4 4 5 6 6 6 5
8 8 9 9 10 11 11 10 9 8 8 8 6 4 4 3 3 3 4 5 6 6 6 6 6 6 6 6 6 6 6 6 6 6 6 7 7 7 7 7 7 6 7 6 6 6 5 5 5 6 6 6 6 6 5 4 4 4 4 5 6 7 8 10 11 9 6 9 11 9 8 8 9 10 7 5 6 5 4 3 4 4 5 6 7
7 7 8 8 9 10 10 9 8 9 9 7 6 4 5 6 8 8 6 3 4 7 8 7 7 7 7 7 7 7 7 7 7 7 7 7 7 8 7 7 7 7 7 7 7 6 6 5 6 6 5 6 6 6 5 4 3 3 4 5 6 7 7 9 11 8 5 5 8 7 5 5 6 7 7 6 4 2 2 1 2 3 4 7 7
6 7 8 9 10 9 9 9 9 10 8 7 7 7 8 9 11 11 11 9 7 6 7 8 9 8 8 9 8 8 8 8 8 8 8 8 7 8 8 8 7 7 7 7 7 7 6 5 6 6 6 6 6 7 6 5 4 3 3 4 6 7 7 7 9 9 6 2 6 7 5 3 3 5 6 5 2 4 4 2 2 2 5 7 7
7 9 9 9 10 9 9 9 8 9 8 7 7 8 8 8 9 9 9 9 10 10 7 7 11 11 9 10 10 10 9 9 9 9 9 9 8 8 8 8 8 7 7 7 7 7 7 6 6 7 7 7 7 7 7 6 4 3 3 4 5 7 6 6 8 7 7 2 4 5 4 3 2 3 4 4 3 3 4 4 3 3 5 7 7
8 9 9 9 9 9 9 9 9 10 9 9 8 9 9 9 10 9 9 9 8 8 7 8 12 13 11 11 11 11 10 10 10 9 10 9 8 8 8 8 8 7 7 7 7 7 7 7 7 7 7 7 7 7 7 6 4 3 4 4 5 6 6 6 7 6 5 3 1 2 2 2 2 3 5 4 2 2 4 4 4 4 6 7 7
7 8 9 9 10 10 11 11 12 12 12 12 12 12 11 11 11 11 11 10 9 9 10 12 14 13 12 12 12 12 11 11 11 10 10 9 8 8 8 8 8 7 7 7 6 7 7 7 7 7 7 7 7 7 6 5 4 4 4 5 5 6 5 5 6 6 6 3 4 3 3 3 3 4 4 4 4 3 4 4 5 6 7 7 8
7 8 9 10 11 11 12 13 14 14 15 15 15 16 16 15 14 15 14 13 12 12 12 13 14 13 13 12 12 11 10 10 11 11 10 9 9 8 8 8 7 7 7 7 6 6 7 7 8 7 8 8 7 7 5 4 4 4 4 4 4 5 5 4 5 7 5 5 6 4 4 4 4 5 4 4 4 4 5 6 7 7 7 8 9
8 9 10 11 11 12 13 14 16 17 18 18 18 19 20 18 17 18 17 16 15 14 14 13 14 14 13 12 12 11 10 9 10 10 10 9 8 7 7 7 7 7 7 7 6 6 6 7 7 8 8 8 7 6 5 4 4 5 5 4 5 6 5 4 4 6 5 4 6 6 5 5 5 5 5 5 5 5 6 7 8 8 8 8 9
10 10 11 11 11 13 15 17 18 20 20 21 20 20 21 19 17 17 16 15 15 15 15 14 14 15 14 13 12 11 9 9 9 9 9 9 8 7 6 6 6 6 7 7 7 6 6 6 7 8 8 8 7 5 5 4 4 6 6 5 6 6 5 4 3 5 6 5 6 7 6 6 5 5 5 5 6 7 7 7 8 8 8 9 9
11 12 12 13 14 16 17 18 20 21 21 21 21 21 20 16 14 14 13 11 11 12 13 13 13 14 14 12 11 10 9 8 9 9 8 8 6 5 5 5 5 4 6 6 6 6 6 7 7 8 8 7 7 5 5 4 3 4 5 5 6 7 6 4 3 5 7 7 7 7 7 7 5 5 5 5 6 7 7 8 8 8 8 9 10
11 13 13 15 17 17 18 19 20 20 21 21 21 20 17 13 12 12 10 7 7 8 10 10 10 12 12 11 10 9 9 8 8 9 8 7 5 4 4 4 3 3 5 5 5 6 7 8 8 8 8 7 6 5 4 4 2 2 3 4 5 7 6 3 3 5 6 7 8 8 7 6 5 6 5 5 5 6 7 9 9 9 10 10 10
12 13 14 16 17 18 19 20 19 19 19 20 20 18 15 11 10 9 7 5 5 7 8 8 8 9 11 10 8 8 8 8 8 9 8 7 4 3 3 3 3 3 4 4 5 5 5 7 7 7 6 6 5 3 4 4 3 3 3 4 6 8 6 2 3 6 7 8 9 7 6 6 6 6 6 6 6 6 9 9 8 8 9 9 9
12 14 14 16 17 18 20 19 18 18 18 20 19 16 15 12 10 8 7 7 6 7 8 8 7 7 9 8 8 7 7 7 8 9 7 6 4 3 2 3 3 3 3 3 4 4 4 5 5 5 5 5 5 3 3 4 4 4 3 5 6 7 7 2 2 5 7 7 6 6 6 7 7 8 8 7 7 9 9 7 6 6 7 8 9
12 13 14 14 16 17 19 18 17 18 18 19 18 16 14 12 9 9 9 9 9 10 10 9 8 8 8 8 7 6 6 7 8 8 7 6 5 4 3 3 3 2 2 3 3 3 4 4 5 5 4 4 4 3 3 4 3 4 4 5 6 6 8 2 3 3 5 4 3 5 7 8 9 9 9 9 10 10 8 6 6 7 7 8 9
11 12 13 13 14 17 18 17 17 17 18 19 19 16 14 11 10 11 11 11 11 13 14 11 10 9 8 8 7 5 5 6 6 6 6 6 6 5 4 3 2 2 2 2 2 3 3 5 5 4 5 4 4 3 3 4 3 3 4 6 6 7 7 4 4 0 2 0 1 4 6 8 8 9 9 9 10 9 7 7 7 7 7 8 8
10 12 12 12 14 17 17 17 17 18 18 18 18 15 13 11 11 12 13 13 13 15 16 13 11 10 8 8 7 5 4 5 5 5 4 5 6 6 6 4 2 2 2 2 2 3 3 3 4 4 4 4 4 4 4 5 5 2 4 6 7 8 10 9 6 4 3 3 2 4 6 7 8 9 10 10 10 9 9 9 9 8 7 7 8
10 11 12 12 16 17 16 17 17 17 17 17 16 14 13 12 12 13 13 15 15 17 18 16 13 12 9 8 7 6 6 5 5 5 4 4 5 6 6 4 2 2 2 2 2 3 3 2 4 3 3 3 3 5 5 5 7 5 5 6 7 8 9 10 9 7 5 4 2 4 5 7 8 9 10 10 10 10 10 10 9 9 8 8 8
10 11 12 14 16 16 16 16 16 17 16 15 15 13 12 12 13 14 14 15 17 18 20 18 15 14 12 10 9 8 8 7 6 5 4 4 4 4 5 5 4 3 3 3 3 3 3 3 3 3 3 4 3 4 4 5 7 7 6 6 7 7 8 9 9 6 5 4 2 2 3 4 6 8 8 8 8 8 8 7 7 9 8 8 9
10 10 12 14 15 15 15 16 16 16 15 14 14 13 12 12 13 14 14 15 16 18 20 19 17 15 13 13 12 10 9 8 7 5 4 3 3 2 4 5 5 4 4 4 3 3 2 2 2 2 3 4 2 3 4 4 5 6 5 5 6 7 7 8 9 7 5 4 3 1 1 2 4 6 6 5 5 5 5 5 5 7 7 8 9
9 10 12 13 14 14 14 15 15 15 14 14 14 13 13 13 13 14 14 14 16 17 19 20 20 17 15 14 13 11 10 10 9 7 5 3 2 2 2 3 5 6 6 5 4 3 2 1 1 2 2 3 2 2 4 4 4 5 5 5 5 6 7 8 9 9 6 3 3 1 1 1 3 3 4 3 3 2 3 3 4 5 6 8 8
9 10 11 12 13 14 14 14 14 14 14 13 13 13 13 14 15 15 15 15 16 17 19 21 22 20 18 16 14 12 12 11 10 9 8 5 3 1 1 2 5 7 7 5 5 4 3 2 1 1 1 2 1 1 3 4 5 5 6 6 5 5 6 8 9 10 7 4 3 3 3 3 2 3 3 3 2 2 2 2 3 4 4 6 6
9 10 11 12 13 13 14 14 14 13 13 13 13 12 13 14 15 15 16 16 16 17 19 20 22 21 20 18 16 14 13 12 12 11 10 8 5 3 1 2 3 4 5 6 6 4 2 2 1 1 1 1 1 1 1 3 5 5 5 6 6 6 6 7 9 10 8 5 4 4 5 5 3 4 4 4 3 2 2 2 2 3 3 4 5
9 9 10 11 12 13 13 14 13 13 12 13 13 13 13 13 13 14 15 15 15 16 18 18 19 19 19 19 18 16 14 13 13 13 13 11 8 5 2 0 0 2 4 7 7 4 2 2 0 1 0 1 1 1 1 2 4 5 5 5 5 6 6 6 7 9 9 8 6 7 8 6 4 5 5 4 4 3 3 3 3 3 4 4 5
9 10 10 11 12 12 13 13 13 13 12 13 13 13 12 12 13 14 14 14 15 15 15 16 17 17 17 18 19 18 15 14 14 14 14 14 12 8 5 3 2 2 4 5 5 4 2 2 0 1 0 1 3 3 3 3 4 4 4 5 5 5 6 5 5 6 7 8 9 8 8 6 6 6 5 5 5 5 4 3 4 4 4 5 6
9 9 10 11 11 11 12 13 13 13 12 12 13 12 11 12 13 13 13 14 14 15 14 14 15 16 16 17 19 19 16 15 13 13 14 15 14 11 8 6 3 2 2 2 2 1 1 1 1 0 0 2 3 3 3 3 3 3 3 4 4 4 5 5 4 5 5 7 8 7 7 6 6 6 5 5 6 6 6 5 4 4 4 5 6
8 9 10 10 11 11 12 12 13 13 12 12 12 12 11 12 12 11 12 13 13 14 14 15 15 16 17 17 18 19 17 15 14 13 14 16 16 14 11 8 6 4 3 2 1 1 1 1 0 0 1 2 3 3 1 2 2 2 4 4 4 5 4 4 3 3 4 5 5 6 6 6 6 5 5 5 6 6 6 5 5 5 4 3 5
7 8 9 10 11 11 11 12 12 13 13 12 11 11 11 12 11 11 12 12 12 13 14 15 16 16 17 17 18 19 18 15 14 15 15 16 16 15 13 11 8 6 5 3 3 2 1 1 1 1 3 2 2 2 1 1 1 1 3 4 4 3 3 3 3 3 3 4 4 5 5 5 5 5 5 5 5 6 5 6 6 6 6 5 4
7 7 8 9 10 10 11 11 11 12 12 12 11 11 12 11 11 11 11 11 12 13 13 14 15 15 16 17 18 20 20 17 16 16 16 15 15 15 15 13 10 8 6 4 3 2 1 1 1 2 4 3 1 2 1 1 1 1 3 3 2 2 2 3 2 2 2 3 4 4 5 5 5 5 4 4 4 4 5 6 7 6 7 7 6
7 6 7 8 9 9 10 10 11 12 12 12 12 11 11 11 11 12 12 12 13 13 13 13 14 16 16 17 17 18 20 20 18 17 16 15 15 15 15 14 12 9 7 5 4 2 1 1 1 1 3 4 3 1 1 2 1 1 2 2 1 1 2 2 2 2 2 3 4 5 5 5 5 4 3 3 3 3 3 5 5 6 7 8 8
6 6 7 8 8 8 9 10 10 11 12 12 12 12 12 11 11 12 12 12 13 13 13 13 14 16 17 16 17 17 18 19 19 17 15 15 14 14 14 14 13 11 9 7 5 3 2 1 1 1 1 3 4 3 1 2 2 1 1 2 2 0 0 1 1 2 3 3 4 5 5 5 5 4 2 2 2 2 3 3 4 4 5 7 8
6 5 6 7 8 8 8 9 10 10 11 12 12 12 12 11 11 10 10 11 12 13 13 14 15 16 17 16 17 17 17 18 19 18 16 15 14 13 13 12 12 12 10 9 7 5 4 2 2 3 2 2 3 3 2 0 1 1 2 2 2 2 2 1 1 2 3 4 4 4 5 5 5 5 3 2 2 2 2 2 3 3 4 6 7
6 6 6 7 8 8 8 9 10 10 11 11 12 12 11 10 11 10 10 11 11 12 13 14 15 16 16 16 17 18 18 18 18 19 17 15 15 14 13 12 11 10 10 9 8 7 6 4 3 3 3 2 2 3 4 2 1 1 2 3 3 4 3 2 2 3 4 5 5 5 5 6 6 6 4 3 3 3 1 2 3 3 3 5 5
5 6 6 7 7 7 8 8 9 10 11 11 12 12 11 10 10 9 9 10 10 11 12 13 15 15 15 15 16 17 18 18 18 19 18 16 16 15 14 12 11 10 9 8 8 8 7 6 4 3 4 4 3 4 4 4 3 2 2 3 4 5 4 3 4 5 6 5 5 6 6 5 5 6 4 3 4 4 3 3 3 2 3 4 5
5 6 6 6 7 7 7 8 9 10 11 11 12 12 11 10 10 9 9 10 11 12 12 13 14 14 14 15 15 16 16 17 16 17 18 18 17 17 16 15 13 11 9 8 8 7 7 7 6 4 4 5 4 3 4 5 4 4 3 3 4 4 5 5 5 6 6 5 6 8 7 4 3 5 4 3 4 4 4 4 4 3 3 4 3
6 5 5 5 6 6 7 8 9 9 10 11 11 11 11 10 10 10 10 10 11 12 12 13 13 13 13 14 15 14 15 16 15 15 16 17 18 19 18 17 15 14 11 10 9 8 6 6 5 5 5 4 4 3 4 5 5 4 4 4 4 4 5 6 6 6 6 6 6 8 9 5 3 5 5 5 5 5 5 5 5 4 3 4 4
7 5 5 5 5 6 7 8 8 9 9 10 10 10 10 10 10 10 10 11 11 12 12 12 12 13 12 13 14 14 14 15 15 15 15 16 17 19 19 18 15 15 14 12 10 9 8 7 5 5 4 4 4 2 3 4 5 5 5 5 5 6 8 7 5 6 7 7 8 7 8 7 5 5 5 5 6 6 6 6 5 5 3 4 5
7 5 5 5 5 5 6 7 8 9 9 9 10 10 10 10 10 10 10 11 11 11 11 11 12 13 13 13 14 14 14 14 14 14 15 15 15 16 18 18 16 15 14 13 12 11 11 10 8 6 5 4 4 3 3 3 4 5 5 6 6 8 10 8 5 7 7 7 8 7 7 7 6 6 6 6 7 8 8 8 7 7 5 5 5
8 6 6 6 5 5 6 6 7 8 8 9 9 10 10 10 10 10 10 11 11 11 11 11 12 12 13 13 13 14 14 14 13 14 15 16 15 15 16 17 17 15 14 13 13 12 12 12 11 9 8 7 6 5 5 4 4 5 5 6 6 7 9 8 6 7 7 8 8 8 9 8 8 8 7 6 8 9 11 11 11 10 8 7 7
Wind_Direction
271 266 251 243 252 265 270 285 291 292 291 293 293 292 292 292 293 296 300 304 306 304 301 296 293 290 285 286 289 287 284 280 279 278 278 278 277 277 277 278 278 277 278 278 278 279 279 278 279 280 279 277 276 275 276 276 278 280 282 277 268 268 274 280 280 276 277 282 282 283 294 294 288 280 272 265 260 263 271 265 233 204 199 200 201
269 270 265 260 276 285 282 289 289 290 289 290 291 289 289 289 292 297 302 305 304 304 300 294 291 288 286 289 291 288 285 282 281 280 280 280 280 280 281 281 280 279 279 279 279 279 278 278 277 277 275 273 273 273 273 274 279 286 286 273 267 271 278 279 274 273 279 285 286 294 296 287 289 283 273 265 255 258 269 246 199 186 191 195 193
267 273 280 280 289 283 279 285 288 287 287 288 288 288 288 289 293 298 302 304 304 303 299 296 293 290 289 290 290 288 287 287 286 285 285 285 284 284 284 283 283 281 280 280 279 279 279 279 277 275 273 272 272 272 272 276 284 296 284 268 268 273 278 279 278 282 289 289 287 290 279 276 284 273 270 274 261 250 230 202 183 172 185 200 192
273 281 287 291 289 281 276 278 280 280 282 283 286 288 291 293 295 299 302 304 303 300 296 294 292 289 289 290 290 290 291 291 291 290 290 289 288 288 286 284 283 282 281 280 280 281 280 278 277 274 273 274 275 274 275 284 300 302 277 264 267 270 274 279 282 290 294 291 282 267 264 267 263 254 272 285 266 224 195 187 179 168 185 214 222
276 290 292 290 286 278 272 271 273 277 280 281 283 287 293 296 297 299 301 300 298 295 293 291 290 290 291 293 295 295 295 294 294 293 292 292 291 289 287 286 283 282 282 281 281 282 281 278 277 278 279 280 280 280 285 300 311 289 268 261 263 267 272 278 281 278 279 288 276 256 256 249 242 248 262 261 198 180 185 192 192 179 193 216 244
276 292 298 287 283 282 275 272 275 278 280 281 284 289 294 294 295 296 295 294 292 292 292 293 294 296 298 300 301 301 299 297 295 293 294 293 293 291 288 287 284 284 283 283 284 282 283 284 285 287 288 287 286 289 299 310 297 271 264 262 263 266 270 273 275 265 264 276 274 262 243 227 227 231 218 165 150 166 179 188 196 203 214 226 244
278 284 289 285 285 287 285 285 283 282 283 285 289 293 294 292 292 291 292 294 294 298 300 300 301 302 306 309 310 308 304 301 298 295 295 295 294 291 289 287 286 286 288 292 288 285 290 292 291 287 285 287 287 296 309 308 281 268 267 266 262 262 266 267 267 258 252 258 259 251 221 209 211 200 182 161 160 177 186 192 203 224 234 236 239
284 280 285 290 292 294 293 292 288 286 290 291 292 293 292 295 301 304 310 314 312 309 308 308 310 314 319 320 316 312 307 303 302 299 296 295 292 288 286 286 287 287 293 301 292 290 290 286 282 276 280 284 285 298 312 295 276 271 271 266 258 259 263 262 263 255 246 241 235 232 200 184 194 184 182 179 184 197 195 200 212 229 234 230 218
292 288 294 300 302 303 300 297 296 298 299 298 297 300 303 309 313 316 322 326 328 322 318 316 319 325 328 327 321 314 309 305 304 301 297 291 286 282 283 285 287 288 293 294 289 289 278 275 279 273 278 282 285 303 304 281 273 273 276 266 258 261 261 257 256 248 225 217 221 219 197 179 189 181 187 198 205 209 197 202 213 228 230 207 184
297 299 304 308 314 316 316 319 320 317 312 308 308 308 306 304 306 310 308 307 318 323 322 321 325 331 331 326 320 316 310 308 307 302 298 290 284 281 284 289 290 292 292 285 287 289 271 271 279 276 279 283 290 305 292 274 272 276 287 273 259 258 256 250 248 237 199 200 217 211 208 191 195 194 199 209 211 211 197 197 210 222 218 195 180
312 319 319 322 329 330 333 336 337 333 326 324 325 329 327 319 319 328 330 326 327 327 328 332 336 335 332 324 315 312 307 308 309 306 302 293 287 287 290 296 299 298 295 290 291 293 279 268 277 285 289 293 299 300 285 274 274 276 280 268 250 246 249 241 241 235 188 203 220 195 200 198 199 205 208 211 207 201 190 191 208 212 196 191 183
328 330 330 336 341 344 350 355 0 3 4 4 10 26 35 33 21 10 9 1 347 342 342 346 347 341 334 326 319 313 308 308 308 306 303 296 291 291 295 300 302 300 299 299 299 298 291 276 278 291 295 298 304 299 290 281 271 266 264 255 239 234 241 236 241 245 187 195 219 185 184 201 211 213 212 215 212 205 205 209 222 214 192 189 174
333 332 337 346 351 358 4 9 16 20 24 22 22 34 39 44 42 33 24 11 358 353 354 353 349 344 337 328 322 317 313 309 304 303 299 296 292 292 295 296 298 298 299 305 307 303 296 289 282 287 293 300 305 299 293 287 273 265 261 245 229 224 232 238 243 253 202 177 201 193 182 195 216 221 219 227 238 240 240 240 237 214 189 187 174
340 344 347 354 358 3 7 9 11 4 356 351 354 8 11 13 15 16 26 26 11 352 349 350 345 342 338 330 323 318 315 310 304 300 296 294 293 294 295 295 295 293 297 305 308 304 298 292 288 286 288 297 302 297 293 293 281 266 256 236 225 225 230 242 246 250 224 170 174 184 185 196 216 228 226 227 232 221 214 228 236 210 185 190 191
349 354 352 354 355 354 354 349 340 333 331 327 319 311 304 292 293 289 280 316 4 357 349 344 343 341 336 330 326 323 321 314 308 303 298 295 294 295 295 295 294 289 292 301 306 303 298 291 292 294 294 297 297 294 290 294 299 274 250 232 230 235 235 252 262 264 243 165 135 140 167 208 224 229 217 215 222 173 145 195 215 200 197 206 205
356 355 350 347 344 341 341 336 327 328 327 315 303 305 307 300 301 298 285 275 276 307 333 346 340 337 336 329 326 326 326 322 316 311 307 304 299 296 296 295 292 286 285 294 303 304 305 301 297 303 302 297 291 291 292 291 297 287 254 239 238 243 245 258 272 281 272 180 124 130 137 164 203 212 212 212 183 113 102 120 165 183 206 218 222
356 348 348 346 344 344 345 344 337 335 332 322 318 324 329 325 323 324 315 298 283 278 297 343 333 329 334 327 325 326 326 324 320 317 314 312 305 300 299 299 295 287 285 292 303 309 315 313 304 302 301 296 289 289 293 294 293 281 258 245 242 246 249 253 262 274 282 293 121 144 135 129 162 203 224 215 175 141 129 138 150 173 206 217 228
354 351 353 349 347 346 343 342 336 332 331 328 328 328 327 327 326 325 322 317 310 294 297 318 315 320 329 326 325 324 324 322 319 318 318 316 308 303 303 302 300 295 291 294 305 314 319 320 311 303 300 297 294 292 294 298 290 263 241 238 244 250 242 243 254 239 240 289 318 232 205 178 194 229 242 234 225 198 169 161 161 178 197 209 230
360 356 351 342 339 337 334 331 328 327 326 324 322 317 313 312 314 312 307 299 295 293 293 295 298 310 320 322 324 323 322 318 316 320 320 319 312 304 300 299 301 302 297 296 305 314 318 321 318 312 307 302 300 301 300 297 288 268 241 231 233 249 249 246 246 216 206 260 274 269 268 246 222 228 242 246 256 238 199 184 183 191 194 201 223
354 348 340 336 333 330 328 326 325 325 324 323 320 313 307 304 303 300 298 295 290 287 286 290 296 301 311 318 323 322 318 314 315 320 320 321 319 306 297 296 298 302 302 302 304 312 316 316 317 317 312 304 301 303 306 299 287 275 253 241 236 246 261 260 238 212 210 254 248 236 245 239 216 215 227 236 241 229 208 198 201 204 200 205 219
346 342 337 334 332 326 326 327 327 326 324 321 319 315 308 302 299 296 293 290 288 287 287 294 300 302 309 317 320 319 315 313 315 317 317 320 322 313 305 299 295 296 301 304 305 311 316 314 315 315 311 305 303 310 319 312 294 282 265 253 252 253 258 254 236 213 205 226 219 207 220 221 204 206 210 214 212 204 202 199 207 210 208 215 223
344 342 338 335 333 329 329 331 329 327 324 322 320 317 313 310 307 303 293 286 287 287 286 291 301 306 311 314 316 317 316 315 315 313 313 316 321 325 324 310 295 293 297 301 302 305 310 313 313 313 313 311 309 320 332 314 287 279 273 267 260 265 272 249 227 206 191 178 183 191 207 205 196 206 204 200 199 199 201 201 206 210 211 219 227
339 338 338 339 339 337 335 334 331 328 326 325 322 321 325 324 318 308 293 286 292 293 290 290 301 307 309 311 312 314 315 314 309 303 300 303 314 332 343 328 305 298 299 300 300 299 302 309 309 311 314 315 315 318 330 320 297 282 272 269 261 264 264 237 216 194 178 175 184 188 193 192 194 207 207 204 205 205 205 207 207 208 211 219 227
336 338 341 343 344 343 340 338 335 333 330 329 327 330 337 333 323 313 300 300 306 311 311 303 305 307 305 308 308 309 314 313 299 293 290 292 301 320 343 344 328 318 309 306 308 304 306 312 311 312 310 314 322 312 314 320 330 321 279 278 279 269 252 215 216 193 171 190 194 181 182 186 203 215 216 218 219 217 215 216 212 208 209 214 225
339 343 345 345 347 347 346 344 339 338 336 334 333 336 345 346 343 342 338 350 346 342 337 321 314 306 303 307 310 310 309 304 291 288 285 284 295 310 328 336 325 326 316 312 318 310 312 322 318 315 310 313 325 319 305 313 340 346 324 333 319 287 272 224 212 195 179 207 199 172 182 192 211 225 230 233 234 232 229 227 223 221 216 211 220
344 347 348 347 348 350 349 347 344 343 342 341 344 347 357 5 9 15 21 23 16 9 358 337 334 320 311 314 317 315 305 295 286 283 272 269 286 299 309 313 306 313 312 315 325 317 318 328 319 317 318 308 316 337 322 323 347 350 341 344 334 303 288 263 192 201 192 211 199 174 197 207 220 232 235 241 244 243 242 244 250 257 243 222 222
348 349 348 348 349 351 351 350 348 347 346 351 360 2 8 19 20 25 32 34 31 21 9 352 351 341 326 325 325 321 307 296 289 284 267 256 268 274 269 274 284 295 304 311 322 321 317 316 312 318 322 300 308 336 330 327 340 339 338 343 345 318 291 271 107 208 207 201 189 187 210 216 225 236 239 243 245 249 258 266 266 265 252 236 235
349 351 348 349 353 355 355 353 352 353 355 1 11 15 21 30 31 37 38 36 35 26 17 6 2 358 343 336 334 330 316 305 302 292 265 253 261 259 253 250 262 281 292 301 312 309 299 305 308 315 317 309 315 321 328 327 315 337 347 341 337 321 310 341 59 141 224 47 185 205 215 221 228 238 244 247 253 260 263 261 259 257 254 248 248
351 354 352 353 358 359 357 356 357 359 3 8 17 25 35 40 40 44 40 34 33 27 23 17 15 14 1 352 345 346 343 327 323 317 292 268 262 252 246 238 235 248 249 263 294 294 287 308 303 300 315 320 323 323 350 337 312 357 9 347 340 337 340 342 358 27 9 349 280 238 229 232 238 245 252 257 263 267 261 252 249 249 253 247 245
351 354 357 359 1 0 358 359 0 4 9 16 25 35 41 44 45 43 37 33 31 28 27 23 24 26 19 12 2 2 5 354 345 338 327 289 260 248 243 237 237 214 189 207 244 280 286 304 293 295 311 307 315 327 354 339 323 5 16 358 355 347 347 338 342 12 359 326 301 268 253 248 253 255 259 265 267 268 264 256 246 242 242 234 232
348 356 1 -0 1 -0 360 1 3 8 13 20 31 41 40 38 39 40 36 30 28 30 29 28 33 34 29 24 17 15 15 9 4 356 342 310 273 243 228 218 226 219 186 194 214 255 279 289 288 297 291 291 314 324 342 342 337 2 11 2 1 349 352 344 337 359 2 334 332 286 270 267 269 270 269 272 273 269 266 257 239 235 234 229 229
351 0 2 359 1 0 2 4 4 10 16 23 33 43 43 40 38 36 34 28 26 29 29 32 38 38 36 31 23 21 21 20 17 15 7 335 314 264 230 213 212 221 206 199 210 233 268 292 292 293 274 280 303 310 321 337 339 353 7 8 5 351 355 352 338 353 15 336 307 285 273 292 295 288 286 280 274 269 266 251 229 226 228 231 235
356 359 360 358 1 3 4 4 6 13 17 22 32 39 41 42 42 37 35 29 24 26 27 33 37 35 37 34 26 22 22 26 24 25 27 11 344 301 269 222 209 217 218 207 204 215 216 211 254 273 262 268 284 298 306 315 327 344 1 3 1 353 351 354 347 350 5 346 323 19 105 14 349 325 316 305 281 266 265 256 240 232 228 232 234
359 356 357 359 1 4 7 6 8 14 19 24 32 38 40 41 42 39 36 30 23 23 25 32 34 31 33 32 27 23 21 25 26 26 26 27 31 346 290 217 215 219 219 209 201 201 183 162 182 222 229 243 259 285 304 311 322 339 349 339 333 346 351 356 356 350 354 18 13 14 66 66 29 11 0 342 318 280 267 272 261 251 241 238 237
3 359 358 -0 2 5 6 7 9 15 20 24 31 37 40 40 39 37 36 32 26 22 22 27 29 26 28 29 27 25 20 21 22 24 25 25 39 42 350 231 241 242 220 208 208 204 153 139 162 200 209 217 227 228 296 314 324 341 341 324 318 332 348 354 359 354 348 10 48 52 55 58 50 34 23 7 353 329 296 290 278 270 260 253 250
5 0 360 1 3 6 6 8 9 16 22 24 31 33 33 37 35 33 34 33 29 24 21 22 23 20 21 24 25 24 21 20 19 22 26 25 38 57 45 157 279 270 222 212 214 212 175 156 150 57 180 263 301 306 338 329 335 350 342 327 319 320 336 350 358 360 353 353 17 61 66 55 47 42 35 30 20 6 333 310 298 285 272 266 265
7 1 2 2 3 6 5 8 10 16 21 24 33 32 29 33 31 31 31 31 30 26 23 19 17 14 14 19 21 22 22 23 21 20 26 26 32 49 54 71 107 206 222 223 218 212 199 188 203 63 160 277 308 319 339 349 344 356 352 343 337 324 329 343 354 3 10 3 0 32 59 56 51 49 41 38 32 22 359 328 311 299 283 274 274
8 4 4 2 5 7 5 9 13 16 18 20 29 30 28 29 28 28 28 29 28 23 22 18 14 8 6 10 15 18 20 23 24 22 27 27 29 38 48 61 81 142 182 224 241 231 214 197 216 61 220 264 284 297 326 343 333 0 24 11 0 346 336 339 352 359 14 16 6 14 31 36 46 49 38 33 33 30 19 359 339 321 303 282 277
10 5 3 3 4 7 6 9 13 17 18 18 23 23 23 27 23 25 27 28 28 23 20 18 13 8 5 5 8 12 18 23 24 25 29 28 27 31 38 50 65 85 108 136 156 207 219 188 168 298 261 268 287 292 315 319 306 11 40 35 24 8 351 342 347 0 7 12 9 5 9 16 23 29 27 25 27 30 26 16 9 359 351 324 291
8 2 1 5 4 6 7 9 15 20 20 20 22 19 19 22 18 21 26 25 27 24 21 20 16 12 8 5 5 8 15 23 27 28 29 27 25 27 32 39 53 70 87 111 130 161 210 238 235 264 274 277 299 303 299 229 246 63 61 57 47 18 2 1 351 358 358 351 354 353 356 4 4 8 17 22 25 26 23 19 16 11 7 -0 321
357 358 358 3 3 4 8 11 15 20 22 22 23 21 21 25 21 24 28 24 27 28 23 22 21 18 13 9 8 8 12 19 28 32 29 25 23 24 28 32 39 54 67 83 108 140 156 266 260 271 291 304 315 313 348 133 183 121 92 77 65 40 22 27 9 358 350 338 344 343 346 353 351 358 5 12 29 31 23 16 9 3 -0 359 348
345 351 353 358 -0 1 7 11 14 16 20 22 21 20 24 30 31 32 32 27 26 27 24 22 21 20 16 12 10 13 16 17 21 29 28 23 22 21 24 28 31 38 46 60 71 90 134 234 260 269 304 319 320 319 61 118 160 127 124 129 101 65 30 22 10 4 354 336 336 334 334 338 340 355 359 349 8 25 26 16 -0 354 354 354 352
337 342 346 352 356 360 3 6 11 13 16 19 18 19 21 26 30 32 34 31 26 23 21 20 18 17 16 13 11 15 22 21 17 23 27 24 23 23 23 24 27 31 31 38 48 49 56 9 320 354 6 344 331 332 96 152 173 203 193 175 159 180 251 23 350 341 346 334 327 326 325 326 327 337 350 338 335 349 19 18 352 353 355 349 352
327 334 344 350 352 355 358 2 6 8 13 16 15 18 20 21 24 25 29 29 24 22 20 19 18 17 17 17 15 16 21 21 18 20 24 23 25 25 25 25 24 27 27 27 30 31 32 12 349 6 27 25 344 325 321 180 177 230 260 234 220 245 242 212 285 299 318 317 310 306 310 315 313 315 330 335 310 314 0 1 337 347 349 343 351
323 329 340 347 346 347 352 358 360 2 8 12 13 17 20 22 24 24 25 25 23 22 22 20 21 21 20 23 22 18 16 17 20 22 20 21 26 26 26 27 25 24 24 25 28 28 26 13 355 349 343 353 344 317 321 325 285 229 231 244 254 268 279 292 302 302 301 299 301 296 295 301 301 304 319 325 303 290 308 312 309 327 330 331 348
325 327 334 343 345 345 351 356 358 1 5 8 11 14 17 22 25 28 27 25 22 22 21 18 19 19 19 23 24 19 15 16 21 25 23 23 26 26 25 27 26 23 19 19 27 29 27 26 16 345 321 326 330 325 326 319 313 302 250 252 257 265 277 284 291 300 300 301 303 297 291 287 288 297 310 313 302 292 280 278 296 313 323 333 346
341 332 334 341 348 348 350 358 358 359 3 5 7 11 16 18 20 25 24 22 21 19 19 16 15 16 15 18 20 18 17 17 18 21 24 27 28 26 23 23 23 24 23 14 14 20 24 28 28 16 352 335 327 324 318 313 320 317 300 280 264 265 268 263 264 276 287 293 293 295 298 292 281 295 304 300 297 298 287 279 287 298 320 331 328
5 349 347 343 350 356 355 1 2 -0 5 6 6 11 16 16 16 20 18 17 18 16 15 14 13 14 13 13 14 15 16 15 14 15 19 24 30 28 24 21 17 16 22 20 11 9 9 18 22 20 19 356 340 326 295 299 308 303 294 283 270 262 255 249 248 257 268 270 273 290 304 308 292 295 299 295 298 303 296 286 282 284 297 302 293
19 11 9 359 355 6 4 5 8 5 6 8 11 14 16 16 15 16 14 13 14 12 11 10 10 11 10 9 9 11 14 12 9 9 11 14 20 23 22 22 20 14 14 16 16 10 1 2 3 1 9 2 353 342 285 285 285 284 287 284 281 271 268 271 260 258 264 264 266 279 295 299 293 291 293 294 300 304 301 295 287 281 279 277 280
27 27 23 20 10 15 12 11 14 10 10 13 16 17 19 21 17 15 13 11 11 10 8 7 7 7 5 5 5 6 9 9 5 3 4 6 5 8 14 17 21 20 15 11 13 13 6 1 356 345 343 338 333 326 300 282 269 271 273 272 274 273 280 292 279 264 267 266 272 277 279 284 285 286 292 292 295 298 296 294 289 280 272 263 262
28 35 31 30 28 31 24 19 18 15 17 17 17 19 22 23 18 16 13 10 10 6 5 6 4 2 1 1 2 1 -0 2 4 1 357 358 357 1 9 12 14 19 19 14 11 12 11 4 358 351 344 334 324 316 304 292 275 270 268 264 267 270 282 295 288 281 282 277 278 278 278 285 284 283 288 285 286 292 289 287 286 279 269 264 262
Height
3131 3130 3130 3131 3132 3134 3135 3133 3132 3132 3132 3132 3131 3131 3130 3130 3129 3129 3129 3128 3128 3128 3127 3127 3127 3127 3127 3127 3127 3127 3127 3126 3126 3125 3124 3124 3124 3124 3123 3123 3122 3122 3121 3120 3120 3120 3119 3119 3119 3118 3118 3117 3117 3117 3117 3117 3118 3119 3120 3119 3116 3116 3117 3118 3118 3119 3120 3121 3121 3122 3123 3122 3122 3122 3122 3123 3123 3123 3124 3125 3126 3126 3127 3128 3128
3131 3130 3130 3132 3133 3133 3133 3132 3131 3131 3131 3130 3130 3129 3129 3129 3128 3128 3128 3127 3127 3126 3126 3126 3126 3126 3126 3126 3126 3125 3125 3125 3124 3124 3123 3123 3123 3122 3122 3121 3121 3120 3119 3119 3118 3118 3117 3117 3117 3117 3116 3115 3115 3115 3116 3116 3118 3119 3119 3117 3115 3116 3117 3118 3117 3118 3119 3119 3120 3121 3122 3121 3120 3121 3121 3122 3123 3123 3123 3124 3125 3126 3127 3128 3128
3130 3130 3131 3134 3134 3132 3132 3131 3130 3130 3129 3129 3128 3128 3128 3127 3127 3127 3126 3126 3125 3125 3125 3125 3125 3125 3125 3124 3124 3124 3124 3124 3123 3123 3122 3122 3121 3121 3121 3120 3119 3118 3118 3117 3116 3116 3116 3115 3115 3115 3115 3114 3113 3114 3115 3116 3117 3119 3118 3115 3114 3116 3117 3117 3117 3118 3119 3118 3119 3120 3120 3120 3120 3120 3120 3122 3123 3123 3123 3124 3125 3126 3127 3127 3128
3129 3130 3130 3133 3134 3132 3131 3130 3129 3129 3128 3128 3127 3127 3127 3126 3126 3125 3125 3124 3124 3124 3124 3124 3123 3124 3124 3123 3123 3123 3123 3122 3122 3121 3121 3121 3120 3120 3119 3119 3118 3117 3116 3116 3115 3115 3114 3114 3114 3114 3113 3112 3112 3113 3114 3116 3118 3118 3116 3114 3114 3116 3116 3116 3116 3117 3117 3117 3118 3119 3119 3119 3119 3119 3120 3121 3123 3123 3123 3124 3125 3126 3126 3126 3127
3130 3130 3129 3130 3132 3132 3130 3129 3128 3128 3127 3127 3126 3126 3126 3125 3125 3124 3124 3124 3123 3123 3123 3123 3123 3123 3123 3122 3122 3122 3121 3121 3121 3120 3120 3120 3119 3119 3118 3117 3117 3116 3115 3115 3114 3114 3113 3113 3113 3112 3112 3112 3111 3112 3114 3116 3118 3116 3113 3113 3114 3115 3115 3115 3115 3115 3116 3116 3118 3119 3119 3119 3119 3118 3119 3120 3122 3122 3123 3123 3124 3125 3126 3125 3126
3130 3130 3129 3129 3129 3129 3128 3128 3127 3127 3127 3126 3126 3125 3125 3125 3124 3123 3123 3123 3123 3122 3122 3122 3122 3122 3122 3121 3121 3121 3120 3120 3120 3119 3119 3118 3118 3117 3117 3116 3115 3115 3114 3114 3113 3113 3112 3112 3112 3112 3112 3111 3111 3113 3115 3116 3116 3113 3112 3113 3114 3114 3115 3114 3114 3114 3115 3115 3117 3118 3118 3118 3118 3118 3118 3120 3121 3122 3122 3123 3123 3124 3125 3125 3126
3129 3129 3128 3128 3128 3128 3127 3127 3127 3126 3126 3126 3125 3125 3124 3124 3123 3123 3122 3122 3122 3122 3122 3122 3121 3121 3121 3120 3120 3120 3119 3119 3119 3118 3118 3117 3117 3116 3115 3115 3114 3113 3113 3113 3112 3112 3112 3112 3112 3111 3111 3110 3111 3113 3115 3115 3114 3111 3111 3112 3113 3113 3114 3114 3113 3113 3114 3115 3115 3117 3118 3118 3118 3118 3118 3119 3120 3122 3122 3122 3123 3123 3124 3124 3125
3129 3129 3128 3128 3128 3127 3127 3127 3126 3126 3125 3125 3124 3124 3123 3123 3123 3122 3122 3122 3122 3121 3121 3121 3121 3120 3120 3119 3119 3119 3118 3118 3118 3118 3117 3116 3116 3115 3114 3114 3113 3113 3112 3112 3112 3111 3111 3111 3110 3110 3110 3110 3111 3113 3114 3114 3111 3110 3111 3112 3111 3112 3113 3113 3113 3113 3114 3114 3114 3115 3117 3118 3118 3118 3118 3118 3119 3120 3121 3122 3122 3123 3123 3124 3125
3128 3128 3127 3127 3127 3127 3127 3126 3126 3125 3125 3125 3124 3123 3123 3122 3122 3122 3121 3121 3121 3121 3120 3120 3120 3119 3119 3118 3118 3118 3117 3117 3117 3117 3116 3116 3115 3114 3113 3113 3112 3112 3111 3111 3111 3110 3110 3110 3110 3109 3109 3110 3111 3112 3113 3112 3110 3110 3111 3111 3110 3111 3112 3112 3112 3112 3113 3113 3114 3115 3117 3118 3118 3117 3117 3117 3118 3118 3120 3121 3122 3123 3123 3124 3124
3128 3127 3127 3127 3126 3126 3126 3126 3126 3125 3125 3124 3124 3123 3123 3122 3122 3121 3121 3120 3120 3120 3120 3119 3119 3118 3118 3118 3117 3117 3117 3116 3116 3116 3115 3115 3114 3113 3112 3112 3112 3111 3111 3110 3110 3110 3110 3110 3109 3109 3109 3109 3110 3112 3112 3110 3109 3109 3110 3110 3109 3110 3111 3112 3111 3110 3113 3113 3113 3114 3115 3117 3117 3117 3117 3116 3115 3115 3117 3119 3121 3122 3123 3124 3125
3127 3127 3127 3126 3126 3126 3126 3125 3125 3124 3124 3124 3123 3123 3123 3122 3121 3121 3121 3120 3120 3120 3120 3119 3119 3118 3118 3117 3117 3116 3116 3116 3115 3115 3114 3114 3113 3112 3112 3112 3111 3111 3110 3110 3109 3109 3109 3109 3109 3109 3109 3109 3110 3111 3111 3109 3109 3109 3109 3109 3109 3110 3110 3111 3109 3108 3113 3113 3112 3114 3114 3116 3117 3117 3116 3115 3114 3114 3116 3118 3121 3123 3124 3125 3125
3127 3127 3127 3126 3126 3125 3125 3125 3124 3124 3124 3123 3123 3122 3122 3122 3121 3121 3121 3120 3120 3120 3120 3119 3118 3118 3117 3117 3116 3116 3116 3115 3114 3114 3113 3113 3112 3111 3111 3111 3111 3110 3110 3109 3109 3109 3108 3109 3108 3108 3108 3108 3109 3110 3109 3109 3108 3108 3109 3109 3109 3109 3109 3109 3108 3108 3113 3113 3111 3112 3114 3115 3117 3116 3116 3116 3117 3118 3119 3120 3121 3124 3125 3125 3126
3127 3127 3127 3126 3126 3125 3125 3125 3124 3124 3124 3124 3123 3123 3122 3122 3122 3122 3121 3121 3121 3120 3120 3119 3118 3117 3117 3116 3116 3116 3115 3115 3114 3113 3112 3112 3111 3111 3111 3111 3111 3110 3109 3109 3109 3108 3108 3108 3108 3108 3108 3108 3109 3109 3108 3108 3108 3108 3108 3108 3108 3108 3108 3108 3107 3108 3112 3114 3111 3111 3113 3116 3117 3116 3117 3119 3120 3121 3121 3121 3122 3124 3125 3127 3127
3128 3128 3127 3127 3126 3126 3125 3125 3125 3125 3124 3124 3124 3123 3123 3123 3123 3122 3122 3121 3121 3120 3120 3119 3118 3117 3117 3116 3116 3115 3115 3114 3113 3112 3112 3111 3111 3111 3110 3110 3110 3110 3109 3109 3108 3108 3108 3108 3108 3108 3108 3108 3108 3108 3108 3108 3108 3108 3108 3107 3107 3107 3107 3107 3107 3108 3111 3114 3114 3113 3115 3117 3118 3118 3119 3119 3119 3121 3121 3121 3122 3124 3125 3126 3126
3128 3128 3128 3127 3127 3127 3126 3126 3125 3125 3125 3124 3124 3124 3123 3123 3123 3122 3122 3121 3120 3120 3119 3118 3118 3117 3116 3116 3115 3115 3114 3113 3112 3112 3111 3111 3111 3110 3110 3110 3109 3109 3109 3108 3108 3108 3108 3108 3108 3108 3108 3108 3107 3107 3107 3107 3108 3108 3107 3107 3107 3106 3106 3106 3106 3108 3109 3112 3116 3117 3117 3118 3117 3118 3118 3118 3119 3121 3122 3122 3122 3123 3125 3125 3125
3129 3129 3128 3128 3128 3127 3127 3126 3126 3125 3125 3125 3124 3124 3123 3123 3122 3122 3121 3121 3120 3120 3119 3118 3117 3116 3116 3115 3114 3114 3114 3113 3112 3111 3111 3110 3110 3110 3109 3109 3109 3109 3108 3108 3108 3107 3107 3108 3108 3108 3107 3107 3107 3107 3107 3107 3108 3108 3107 3107 3106 3106 3106 3106 3106 3106 3107 3110 3114 3116 3117 3117 3117 3118 3119 3119 3120 3121 3122 3122 3123 3124 3124 3125 3125
3129 3129 3129 3128 3128 3127 3127 3127 3126 3126 3126 3125 3125 3124 3124 3123 3122 3121 3121 3120 3120 3119 3119 3117 3117 3116 3115 3114 3114 3113 3113 3112 3111 3110 3110 3110 3110 3109 3109 3109 3109 3108 3108 3108 3108 3107 3107 3108 3108 3107 3107 3107 3107 3107 3107 3107 3107 3107 3107 3107 3106 3106 3106 3107 3107 3107 3107 3109 3112 3114 3116 3117 3117 3118 3119 3119 3119 3120 3120 3121 3122 3123 3124 3125 3125
3129 3129 3128 3128 3128 3127 3127 3127 3126 3126 3126 3125 3125 3124 3123 3123 3122 3121 3120 3120 3119 3119 3118 3117 3117 3115 3114 3114 3113 3113 3112 3111 3110 3110 3109 3109 3109 3109 3109 3108 3108 3108 3108 3108 3108 3108 3108 3108 3108 3107 3107 3107 3107 3107 3107 3107 3107 3107 3106 3106 3106 3106 3107 3107 3108 3109 3109 3110 3112 3114 3115 3116 3117 3118 3119 3119 3119 3119 3119 3120 3121 3121 3123 3124 3124
3129 3129 3129 3128 3128 3128 3128 3127 3127 3126 3126 3125 3125 3124 3123 3122 3121 3121 3120 3119 3119 3118 3118 3117 3116 3115 3114 3113 3113 3112 3111 3110 3109 3109 3109 3109 3108 3108 3108 3108 3108 3108 3107 3107 3108 3108 3108 3108 3108 3108 3107 3107 3107 3107 3107 3107 3106 3106 3106 3106 3106 3106 3107 3108 3108 3109 3111 3112 3113 3113 3115 3116 3116 3116 3117 3118 3118 3118 3119 3119 3119 3120 3121 3122 3123
3130 3129 3129 3129 3129 3128 3128 3128 3127 3126 3125 3125 3124 3123 3122 3121 3121 3120 3119 3119 3118 3117 3116 3116 3115 3114 3113 3112 3112 3111 3111 3110 3109 3108 3108 3108 3108 3107 3107 3107 3108 3108 3107 3107 3107 3108 3108 3108 3108 3108 3107 3107 3107 3106 3106 3107 3106 3106 3106 3106 3106 3106 3107 3108 3108 3110 3112 3112 3112 3113 3114 3115 3115 3115 3116 3116 3117 3117 3118 3118 3118 3119 3120 3120 3121
3130 3130 3129 3129 3129 3129 3128 3128 3127 3126 3125 3124 3123 3121 3120 3120 3120 3118 3118 3117 3116 3116 3115 3114 3113 3112 3112 3111 3111 3111 3110 3109 3108 3108 3107 3107 3107 3107 3107 3107 3107 3107 3107 3107 3107 3108 3108 3108 3108 3108 3107 3107 3107 3107 3107 3107 3107 3106 3106 3107 3107 3106 3107 3108 3109 3110 3112 3112 3112 3113 3113 3114 3115 3114 3115 3115 3116 3116 3117 3117 3117 3118 3119 3120 3120
3130 3130 3130 3130 3130 3129 3128 3127 3126 3125 3124 3123 3121 3119 3118 3119 3118 3117 3116 3115 3114 3113 3113 3113 3112 3111 3111 3110 3110 3110 3109 3108 3108 3107 3107 3107 3107 3107 3106 3106 3107 3107 3107 3107 3107 3108 3108 3108 3108 3108 3108 3107 3107 3107 3107 3107 3107 3107 3107 3107 3107 3107 3108 3109 3110 3111 3112 3112 3112 3113 3113 3114 3114 3114 3114 3115 3115 3116 3116 3117 3117 3117 3118 3119 3119
3130 3130 3130 3130 3129 3128 3128 3127 3126 3124 3123 3121 3119 3118 3118 3118 3116 3115 3114 3113 3113 3112 3112 3112 3112 3111 3110 3109 3109 3109 3108 3108 3107 3107 3106 3106 3106 3106 3106 3106 3106 3107 3107 3106 3107 3107 3108 3107 3107 3108 3108 3108 3108 3108 3108 3107 3107 3107 3107 3107 3107 3107 3108 3109 3110 3111 3112 3112 3112 3113 3113 3113 3114 3114 3114 3114 3115 3116 3116 3116 3116 3116 3117 3118 3118
3131 3130 3130 3129 3129 3128 3127 3126 3125 3123 3122 3120 3118 3117 3118 3117 3115 3114 3113 3112 3112 3112 3111 3111 3111 3110 3109 3108 3108 3108 3108 3107 3107 3106 3105 3105 3106 3106 3106 3106 3106 3106 3107 3106 3107 3107 3108 3107 3107 3108 3108 3108 3108 3108 3107 3107 3107 3107 3107 3107 3107 3106 3108 3110 3110 3110 3111 3112 3112 3112 3112 3112 3113 3113 3114 3114 3114 3115 3115 3114 3115 3115 3115 3116 3117
3131 3130 3130 3129 3129 3128 3127 3125 3124 3123 3121 3120 3118 3117 3117 3115 3114 3113 3113 3112 3112 3111 3111 3110 3110 3109 3108 3107 3107 3107 3107 3107 3106 3105 3105 3105 3105 3105 3106 3106 3106 3106 3106 3107 3107 3108 3108 3108 3108 3108 3108 3108 3108 3108 3107 3107 3107 3107 3107 3107 3107 3107 3109 3111 3110 3110 3110 3111 3112 3111 3111 3111 3112 3112 3113 3113 3114 3114 3113 3113 3113 3114 3114 3115 3116
3131 3130 3130 3129 3129 3128 3127 3125 3124 3123 3121 3119 3118 3116 3115 3114 3113 3113 3112 3112 3112 3111 3110 3110 3109 3108 3107 3107 3107 3107 3106 3106 3105 3105 3105 3105 3105 3105 3105 3105 3106 3106 3106 3107 3107 3107 3107 3107 3108 3108 3108 3108 3108 3108 3107 3107 3106 3107 3107 3107 3107 3107 3108 3110 3110 3109 3109 3110 3109 3109 3110 3110 3111 3111 3112 3112 3112 3112 3111 3113 3114 3115 3116 3116 3116
3131 3131 3130 3130 3129 3128 3127 3126 3124 3123 3121 3120 3118 3116 3115 3114 3114 3113 3112 3112 3112 3111 3110 3110 3109 3108 3107 3106 3106 3106 3106 3105 3105 3105 3104 3104 3104 3104 3105 3105 3105 3106 3106 3107 3107 3107 3107 3107 3107 3108 3108 3108 3108 3108 3108 3107 3107 3107 3107 3107 3107 3107 3108 3110 3110 3108 3108 3108 3107 3108 3109 3110 3110 3110 3111 3111 3110 3110 3111 3113 3114 3115 3116 3116 3116
3132 3131 3131 3130 3130 3129 3127 3126 3125 3123 3121 3120 3118 3116 3115 3115 3115 3114 3113 3112 3112 3112 3111 3110 3109 3108 3106 3106 3106 3106 3105 3105 3104 3104 3104 3104 3104 3104 3104 3105 3105 3106 3106 3106 3107 3107 3107 3107 3107 3107 3107 3107 3107 3107 3107 3107 3107 3107 3107 3108 3108 3109 3108 3109 3110 3108 3107 3107 3107 3108 3109 3109 3110 3110 3110 3109 3109 3111 3112 3113 3113 3113 3114 3115 3115
3132 3131 3131 3131 3130 3129 3127 3126 3125 3123 3121 3120 3118 3117 3116 3116 3116 3115 3114 3113 3113 3112 3111 3110 3109 3108 3107 3106 3106 3105 3105 3104 3104 3104 3104 3104 3103 3104 3104 3105 3105 3106 3106 3106 3107 3107 3107 3107 3107 3107 3107 3107 3107 3107 3106 3106 3107 3107 3107 3108 3108 3108 3106 3104 3107 3109 3107 3107 3107 3107 3108 3108 3109 3109 3109 3109 3110 3111 3111 3111 3112 3112 3113 3114 3114
3132 3132 3131 3131 3129 3129 3128 3126 3125 3123 3122 3121 3120 3119 3118 3117 3117 3115 3115 3114 3113 3113 3111 3110 3109 3108 3107 3106 3106 3105 3105 3104 3104 3103 3103 3103 3103 3103 3104 3104 3105 3106 3106 3106 3106 3106 3106 3107 3107 3107 3107 3107 3107 3107 3106 3106 3106 3106 3106 3107 3107 3107 3107 3104 3105 3107 3107 3107 3107 3107 3107 3108 3108 3108 3108 3109 3110 3110 3109 3110 3111 3111 3112 3112 3112
3132 3132 3131 3130 3129 3129 3128 3126 3125 3124 3123 3122 3121 3120 3119 3118 3117 3116 3115 3115 3114 3113 3112 3110 3109 3108 3108 3107 3106 3106 3105 3105 3104 3103 3103 3102 3102 3102 3103 3104 3104 3105 3106 3106 3106 3106 3106 3107 3106 3106 3107 3107 3107 3107 3107 3107 3106 3106 3107 3108 3108 3108 3108 3106 3105 3107 3108 3107 3107 3107 3107 3107 3108 3108 3109 3109 3109 3109 3109 3109 3110 3110 3110 3110 3111
3133 3132 3131 3130 3130 3129 3128 3127 3126 3125 3124 3123 3121 3121 3120 3119 3118 3117 3116 3115 3115 3114 3112 3111 3110 3109 3108 3107 3107 3106 3105 3105 3104 3103 3103 3102 3102 3102 3102 3102 3103 3104 3105 3105 3106 3106 3106 3106 3106 3106 3106 3106 3107 3107 3107 3108 3107 3108 3108 3109 3109 3108 3108 3108 3106 3107 3109 3108 3107 3108 3107 3108 3108 3108 3108 3109 3108 3109 3109 3109 3110 3109 3110 3110 3110
3133 3132 3132 3131 3130 3129 3128 3127 3126 3125 3125 3123 3123 3122 3121 3120 3119 3118 3117 3116 3115 3115 3114 3112 3111 3110 3109 3108 3107 3107 3106 3105 3104 3103 3103 3102 3102 3101 3101 3102 3102 3103 3103 3104 3105 3105 3105 3105 3105 3105 3106 3106 3106 3107 3107 3107 3108 3108 3108 3109 3109 3109 3109 3109 3108 3108 3109 3109 3108 3108 3108 3108 3108 3108 3109 3108 3108 3108 3109 3109 3109 3109 3110 3110 3110
3133 3132 3132 3131 3130 3129 3128 3127 3127 3126 3125 3124 3123 3123 3122 3120 3119 3119 3118 3117 3116 3115 3114 3113 3112 3111 3110 3109 3108 3107 3106 3105 3104 3104 3103 3102 3102 3101 3101 3101 3101 3101 3102 3103 3104 3104 3105 3105 3105 3105 3105 3105 3106 3107 3107 3107 3107 3108 3108 3109 3109 3109 3109 3109 3109 3108 3109 3109 3109 3108 3109 3109 3108 3108 3108 3109 3109 3109 3109 3109 3109 3109 3109 3109 3109
3133 3132 3132 3131 3130 3129 3129 3128 3127 3127 3126 3125 3124 3123 3122 3121 3120 3120 3119 3118 3117 3116 3115 3114 3113 3112 3111 3110 3109 3108 3107 3106 3105 3104 3103 3102 3102 3101 3101 3100 3101 3101 3101 3102 3102 3103 3104 3104 3105 3105 3105 3105 3105 3106 3107 3107 3107 3108 3108 3109 3109 3109 3109 3109 3109 3109 3107 3108 3109 3110 3110 3110 3109 3108 3108 3108 3109 3108 3109 3109 3109 3109 3108 3108 3108
3133 3132 3132 3131 3130 3130 3129 3128 3128 3127 3126 3125 3125 3124 3123 3122 3122 3121 3120 3119 3118 3117 3116 3115 3114 3114 3113 3111 3110 3109 3108 3106 3105 3104 3104 3103 3102 3101 3101 3100 3100 3101 3101 3101 3101 3102 3103 3104 3104 3105 3105 3105 3105 3105 3106 3107 3107 3108 3108 3108 3108 3108 3109 3109 3109 3110 3107 3106 3108 3110 3110 3109 3108 3109 3108 3108 3108 3108 3108 3108 3108 3108 3108 3108 3107
3133 3132 3132 3131 3131 3130 3130 3129 3128 3128 3127 3126 3125 3125 3124 3123 3122 3122 3121 3120 3119 3118 3117 3116 3115 3114 3113 3112 3111 3110 3109 3107 3106 3105 3104 3103 3102 3102 3101 3101 3100 3100 3100 3101 3101 3102 3102 3103 3104 3104 3105 3105 3105 3105 3106 3106 3107 3107 3107 3107 3108 3108 3109 3109 3109 3110 3109 3107 3107 3108 3109 3109 3109 3109 3109 3108 3108 3107 3107 3108 3107 3108 3107 3107 3107
3133 3132 3132 3132 3131 3131 3130 3130 3129 3128 3128 3127 3126 3126 3125 3124 3123 3123 3122 3121 3120 3119 3118 3117 3116 3115 3114 3113 3112 3111 3110 3108 3107 3106 3105 3104 3103 3102 3101 3101 3101 3100 3100 3101 3101 3102 3102 3103 3103 3104 3104 3104 3104 3105 3105 3106 3106 3106 3106 3106 3107 3107 3108 3108 3109 3109 3109 3108 3108 3107 3107 3109 3109 3109 3108 3108 3107 3107 3107 3107 3107 3107 3107 3107 3106
3133 3133 3132 3132 3132 3131 3131 3130 3129 3129 3128 3127 3127 3126 3126 3125 3124 3123 3123 3122 3121 3120 3119 3118 3117 3116 3114 3113 3112 3112 3110 3109 3108 3107 3106 3105 3103 3102 3102 3101 3101 3101 3101 3101 3101 3102 3103 3103 3103 3103 3103 3103 3104 3104 3104 3105 3105 3105 3105 3106 3106 3107 3107 3108 3108 3108 3108 3108 3108 3108 3108 3108 3108 3108 3108 3108 3107 3107 3107 3107 3106 3106 3106 3106 3106
3133 3133 3133 3132 3132 3132 3131 3130 3130 3129 3129 3128 3127 3126 3126 3125 3124 3124 3123 3123 3122 3121 3120 3119 3118 3117 3115 3114 3113 3112 3111 3110 3109 3107 3106 3106 3105 3103 3103 3102 3101 3101 3101 3101 3102 3102 3103 3103 3103 3103 3102 3103 3103 3103 3103 3103 3104 3104 3104 3105 3106 3106 3106 3107 3107 3108 3108 3108 3108 3108 3108 3108 3108 3108 3107 3107 3107 3107 3106 3106 3106 3105 3105 3105 3105
3133 3133 3133 3133 3133 3132 3132 3131 3130 3130 3129 3129 3128 3127 3127 3126 3125 3124 3124 3123 3123 3122 3121 3120 3119 3118 3117 3116 3114 3113 3112 3110 3109 3108 3107 3106 3106 3105 3103 3103 3102 3101 3101 3102 3102 3102 3103 3103 3102 3102 3102 3102 3102 3103 3103 3103 3103 3104 3104 3104 3105 3106 3106 3106 3107 3107 3107 3108 3108 3108 3108 3108 3108 3108 3107 3107 3107 3107 3106 3106 3106 3105 3105 3104 3104
3134 3134 3133 3133 3133 3133 3132 3131 3131 3130 3130 3129 3128 3128 3128 3127 3126 3125 3125 3124 3123 3123 3122 3121 3120 3120 3118 3117 3116 3115 3113 3112 3110 3109 3108 3107 3107 3106 3105 3104 3103 3102 3102 3102 3102 3103 3103 3102 3102 3102 3102 3102 3102 3102 3103 3103 3103 3104 3104 3104 3105 3105 3105 3105 3106 3106 3106 3107 3107 3107 3107 3107 3107 3107 3107 3106 3106 3106 3106 3106 3105 3105 3104 3104 3104
3134 3134 3134 3133 3133 3133 3132 3132 3131 3131 3130 3129 3129 3129 3128 3128 3127 3126 3125 3124 3123 3123 3122 3121 3121 3120 3120 3118 3117 3116 3115 3114 3112 3110 3110 3108 3107 3107 3106 3105 3104 3103 3103 3102 3102 3103 3103 3102 3102 3102 3103 3102 3102 3102 3103 3103 3103 3103 3103 3104 3104 3104 3105 3105 3106 3106 3106 3106 3106 3107 3107 3107 3107 3107 3106 3106 3106 3106 3106 3105 3105 3104 3104 3103 3103
3134 3134 3134 3133 3133 3133 3133 3132 3132 3131 3131 3130 3130 3129 3129 3128 3127 3126 3126 3125 3124 3123 3123 3122 3122 3121 3120 3119 3118 3117 3116 3115 3114 3112 3111 3110 3109 3108 3107 3106 3105 3105 3104 3103 3103 3103 3103 3103 3102 3103 3103 3103 3102 3102 3102 3102 3103 3103 3103 3103 3104 3104 3104 3105 3105 3105 3105 3105 3105 3106 3106 3106 3106 3106 3106 3106 3106 3105 3105 3104 3104 3104 3103 3103 3103
3134 3134 3134 3133 3133 3133 3133 3132 3132 3131 3131 3130 3130 3130 3129 3129 3128 3127 3126 3126 3125 3124 3124 3123 3122 3122 3121 3120 3119 3118 3117 3116 3115 3113 3112 3111 3110 3109 3108 3107 3106 3106 3105 3104 3104 3103 3103 3103 3103 3103 3103 3103 3102 3102 3102 3102 3102 3102 3102 3103 3103 3103 3104 3104 3105 3105 3105 3105 3105 3105 3105 3105 3105 3105 3105 3105 3105 3104 3104 3104 3103 3103 3103 3102 3102
3134 3134 3134 3133 3133 3133 3133 3132 3132 3132 3131 3131 3130 3130 3129 3129 3128 3128 3127 3127 3126 3125 3124 3124 3123 3122 3121 3121 3120 3119 3118 3117 3116 3115 3114 3112 3111 3110 3109 3108 3107 3107 3106 3105 3105 3104 3104 3103 3103 3103 3103 3103 3103 3103 3102 3102 3102 3102 3102 3102 3103 3103 3104 3104 3105 3104 3104 3104 3104 3104 3104 3105 3104 3104 3104 3104 3104 3104 3103 3103 3102 3102 3102 3102 3102
3134 3134 3134 3134 3133 3133 3133 3132 3132 3132 3132 3131 3131 3130 3130 3129 3129 3128 3127 3127 3126 3125 3125 3124 3123 3122 3122 3121 3121 3120 3119 3118 3117 3116 3115 3114 3112 3111 3110 3109 3108 3107 3107 3106 3106 3105 3104 3104 3104 3103 3103 3103 3103 3103 3102 3102 3102 3102 3102 3102 3102 3103 3103 3103 3104 3103 3104 3104 3103 3103 3103 3104 3104 3103 3103 3103 3103 3103 3103 3102 3102 3101 3101 3101 3101
3135 3134 3134 3134 3134 3133 3133 3133 3133 3132 3132 3132 3131 3131 3130 3129 3129 3128 3128 3127 3126 3126 3125 3125 3124 3123 3123 3122 3122 3121 3120 3119 3118 3118 3117 3116 3114 3113 3112 3111 3110 3108 3108 3107 3107 3106 3105 3105 3104 3104 3103 3103 3103 3103 3103 3102 3103 3103 3102 3102 3102 3102 3102 3102 3102 3102 3103 3103 3103 3103 3102 3103 3103 3103 3102 3102 3102 3102 3102 3101 3101 3101 3101 3100 3100
3135 3135 3134 3134 3134 3134 3133 3133 3133 3133 3132 3132 3132 3131 3131 3130 3129 3128 3128 3127 3127 3126 3126 3125 3125 3124 3124 3123 3123 3122 3121 3120 3119 3118 3118 3117 3115 3115 3114 3113 3111 3110 3109 3108 3107 3107 3106 3106 3105 3104 3104 3103 3103 3103 3103 3103 3103 3103 3102 3102 3102 3102 3101 3101 3102 3102 3102 3102 3102 3102 3102 3102 3102 3102 3102 3102 3101 3101 3100 3100 3100 3100 3100 3100 3100
3136 3135 3135 3135 3134 3134 3134 3133 3133 3133 3133 3132 3132 3132 3131 3131 3130 3129 3129 3128 3127 3127 3126 3126 3125 3124 3124 3123 3123 3122 3121 3121 3120 3119 3118 3118 3117 3116 3115 3114 3113 3111 3110 3109 3108 3107 3107 3106 3106 3105 3105 3104 3104 3103 3103 3103 3103 3102 3102 3102 3102 3102 3101 3101 3102 3101 3101 3101 3101 3102 3101 3101 3101 3101 3101 3101 3100 3100 3099 3099 3099 3099 3099 3099 3099
3136 3136 3135 3135 3134 3134 3134 3134 3134 3134 3133 3133 3133 3132 3132 3131 3131 3130 3129 3129 3128 3127 3127 3126 3126 3125 3124 3124 3123 3122 3121 3121 3120 3119 3118 3118 3117 3117 3116 3115 3113 3112 3111 3110 3109 3108 3107 3107 3106 3106 3105 3105 3104 3104 3103 3103 3103 3102 3102 3102 3101 3101 3101 3101 3101 3101 3101 3101 3101 3101 3100 3101 3100 3100 3100 3100 3099 3099 3098 3098 3098 3097 3097 3098 3098